Weather History for Dalhart, TX

Change the Weather History Date:

Monday, March 17, 2014

  Actual Average Record
Temperature  
Mean Temperature 52 °F 46 °F  
Max Temperature 79 °F 62 °F 86 °F (2011)
Min Temperature 24 °F 30 °F 15 °F (2005)
Degree Days  
Heating Degree Days 13 19  
Month to date heating degree days 372 367  
Since 1 July heating degree days 3966 4010  
Cooling Degree Days 0 0  
Month to date cooling degree days 0 0  
Year to date cooling degree days 0 0  
Growing Degree Days 2 (Base 50)    
Moisture  
Dew Point 14 °F    
Average Humidity 40    
Maximum Humidity 74    
Minimum Humidity 6    
Precipitation  
Precipitation 0.00 in 0.04 in 0.50 in (2001)
Month to date precipitation 0.09 0.56  
Year to date precipitation 0.18 1.48  
Snow  
Snow 0.00 in 0.10 in 4.00 in (2001)
Month to date snowfall 1.1 2.2  
Since 1 July snowfall 16.4 15.7  
Snow Depth 0.00 in    
Sea Level Pressure  
Sea Level Pressure 29.66 in    
Wind  
Wind Speed 14 mph (SW)    
Max Wind Speed 35 mph    
Max Gust Speed 42 mph    
Visibility 10 miles    
Events      
T = Trace of Precipitation, MM = Missing Value Source: NWS Daily Summary

Daily Weather History Graph

Daily Weather History Graph

Search for Another Location

Airport:

Trip Planner

Search our weather history database for the weather conditions in past years. The results will help you decide how hot, cold, wet, or windy it might be!

Date:

Astronomy

Mar. 17, 2014 Rise Set
Actual Time 7:58 AM CDT 7:59 PM CDT
Civil Twilight 7:32 AM CDT 8:25 PM CDT
Nautical Twilight 7:02 AM CDT 8:54 PM CDT
Astronomical Twilight 6:32 AM CDT 9:25 PM CDT
Moon 9:15 PM CDT (3/17) 8:17 AM CDT (3/17)
Length of Visible Light 12h 52m
Length of Day
12h 01m
Full, 99% of the Moon is Illuminated
Mar 17
Full
Mar 23
Last Quarter
Mar 30
New
Apr 7
First Quarter
Apr 15
Full

Hourly Weather History & Observations

Time (CDT) Temp. Windchill Dew Point Humidity Pressure Visibility Wind Dir Wind Speed Gust Speed Precip Events Conditions
12:53 AM 32.0 °F 24.8 °F 15.1 °F 50% 30.08 in 10.0 mi WSW 8.1 mph - N/A   Clear
1:53 AM 30.0 °F 23.2 °F 15.1 °F 54% 30.06 in 10.0 mi West 6.9 mph - N/A   Clear
2:53 AM 30.9 °F 24.3 °F 17.1 °F 57% 30.03 in 10.0 mi West 6.9 mph - N/A   Clear
3:53 AM 32.0 °F 26.4 °F 17.1 °F 54% 29.99 in 10.0 mi West 5.8 mph - N/A   Clear
4:53 AM 28.9 °F 22.8 °F 17.1 °F 61% 29.94 in 10.0 mi SW 5.8 mph - N/A   Clear
5:53 AM 25.0 °F 16.3 °F 17.1 °F 72% 29.92 in 10.0 mi SSW 8.1 mph - N/A   Clear
6:53 AM 26.1 °F 16.8 °F 16.0 °F 66% 29.91 in 10.0 mi SW 9.2 mph - N/A   Clear
7:53 AM 28.0 °F 20.8 °F 17.1 °F 63% 29.88 in 10.0 mi South 6.9 mph - N/A   Clear
8:53 AM 30.9 °F 24.3 °F 19.0 °F 61% 29.88 in 10.0 mi SSW 6.9 mph - N/A   Clear
9:53 AM 42.1 °F 35.2 °F 19.9 °F 41% 29.83 in 10.0 mi SW 12.7 mph - N/A   Clear
10:53 AM 52.0 °F - 19.9 °F 28% 29.77 in 10.0 mi SSW 16.1 mph - N/A   Clear
11:53 AM 55.9 °F - 19.0 °F 24% 29.74 in 10.0 mi SW 17.3 mph - N/A   Clear
12:53 PM 62.1 °F - 18.0 °F 18% 29.66 in 10.0 mi SSW 15.0 mph - N/A   Clear
1:53 PM 68.0 °F - 15.1 °F 13% 29.60 in 10.0 mi SSW 19.6 mph - N/A   Clear
2:53 PM 70.0 °F - 10.0 °F 10% 29.52 in 10.0 mi SSW 25.3 mph 29.9 mph N/A   Clear
3:53 PM 73.0 °F - 7.0 °F 8% 29.45 in 10.0 mi SSW 24.2 mph 33.4 mph N/A   Clear
4:53 PM 73.0 °F - 8.1 °F 8% 29.40 in 10.0 mi SSW 23.0 mph - N/A   Clear
5:53 PM 78.1 °F - 5.0 °F 6% 29.34 in 9.0 mi SSW 29.9 mph 41.4 mph N/A   Clear
6:53 PM 75.9 °F - 5.0 °F 6% 29.32 in 10.0 mi SW 24.2 mph 34.5 mph N/A   Clear
7:53 PM 72.0 °F - 6.1 °F 8% 29.32 in 10.0 mi WSW 21.9 mph 32.2 mph N/A   Clear
8:53 PM 63.0 °F - 9.0 °F 12% 29.33 in 10.0 mi SW 12.7 mph - N/A   Clear
9:53 PM 59.0 °F - 10.9 °F 15% 29.31 in 10.0 mi SW 12.7 mph - N/A   Clear
10:53 PM 57.0 °F - 10.9 °F 16% 29.29 in 10.0 mi SW 11.5 mph - N/A   Clear
11:53 PM 48.0 °F - 10.9 °F 22% 29.29 in 10.0 mi South 12.7 mph - N/A   Clear